Other Public Products
Issued by NWS Grand Forks, ND

Home | Current Version | Previous Version | Text Only | Print | Product List | Glossary On
Versions: 1 2 3 4 5 6 7 8 9 10 11 12 13 14 15 16 17 18 19 20 21 22 23 24 25 26 27 28 29 30 31 32 33 34 35 36 37 38 39 40 41 42 43 44 45 46 47 48 49 50
000
FPUS83 KFGF 191310
OPUFGF
PRAIRIE TO PINES WEATHER ROUNDUP
NATIONAL WEATHER SERVICE EASTERN NORTH DAKOTA/GRAND FORKS ND
700 AM CST SUN NOV 19 2017

 **SATELLITE DATA USED TO AUGMENT SKY COVER AT AUTOMATED STATIONS**
 *****  WEATHER ACROSS EASTERN NORTH DAKOTA  *****

CITY           SKY/WX    TMP DP  RH WIND       PRES   REMARKS
GRAND FORKS    MOCLDY    16  13  88 S8        29.93F WCI   5
GRND FORKS AFB CLOUDY    16  11  80 CALM      29.92F
GRND FORKS NWS   N/A     18 N/A N/A SW1         N/A
BUXTON         NOT AVBL
DEVILS LAKE    FAIR      23  19  85 SW9       29.87F WCI  13
FARGO          FAIR      17  13  84 S6        29.98S WCI   9
WAHPETON ARPT  NOT AVBL
$$

 *****  WEATHER ACROSS CENTRAL AND WESTERN NORTH DAKOTA  *****

CITY           SKY/WX    TMP DP  RH WIND       PRES   REMARKS
JAMESTOWN      FAIR      24  19  81 SW6       29.90F WCI  17
BISMARCK       FAIR      19  17  92 SE5       29.93F WCI  12
MINOT          FAIR      29  22  75 SW9       29.83F WCI  20
MINOT AFB      FAIR      26  20  78 W8        29.82F WCI  18
GARRISON         N/A     28  24  85 W14       29.85F WCI  17
WILLISTON      FAIR      20  17  88 CALM      29.87F
DICKINSON      FAIR      26  19  74 W10       29.87F WCI  16
HETTINGER      FAIR      17  12  80 W5        29.95F WCI  10
$$

 *****  OTHER OBSERVATIONS NORTHEAST NORTH DAKOTA  *****

CITY           SKY/WX    TMP DP  RH WIND       PRES   REMARKS
WALHALLA       FAIR      18  14  86 S5        29.89F WCI  11
LANGDON        NOT AVBL
CAVALIER       FAIR      16  10  79 S3        29.90F
GRAFTON        NOT AVBL
CANDO          CLOUDY    16  16 100 SW8       29.87F WCI   5
FORT TOTTEN      N/A     19  15  85 S3        29.95S
ROLLA          CLOUDY    21  18  86 SW15      29.80S WCI   8
RUGBY          NOT AVBL
 ***** THE ABOVE OBSERVATIONS ARE NON NWS ARE NOT QUALITY
        CONTROLLED AND MAY MIS-REPORT RAIN FOR SNOW...
$$

 *****  OTHER OBSERVATIONS SOUTHEAST NORTH DAKOTA *****

CITY           SKY/WX    TMP DP  RH WIND       PRES   REMARKS
COOPERSTOWN    FAIR      21  19  93 SW8       29.90F WCI  12
VALLEY CITY    NOT AVBL
OAKES            N/A     21  19  93 S10       29.96F WCI  10
GWINNER        SUNNY     19  16  86 SW10      29.96F WCI   8
SHEYENNE NWR     N/A     19  17  91 W5        29.95S WCI  12
BUFFALO        NOT AVBL
WYNDMERE       NOT AVBL
 ***** THE ABOVE OBSERVATIONS ARE NON NWS ARE NOT QUALITY
       CONTROLLED AND MAY MIS-REPORT RAIN FOR SNOW...
$$

  *****  WEATHER ACROSS NORTHERN MINNESOTA  *****

CITY           SKY/WX    TMP DP  RH WIND       PRES   REMARKS
FLAG ISLAND    FAIR       7   1  78 W8        29.89S WCI  -6
WARROAD        FAIR      10   7  85 SW5       29.91S WCI   2
ROSEAU         CLOUDY    16   9  73 SW5       29.91S WCI   9
HALLOCK        CLOUDY    12  10  92 S7        29.91F WCI   2
THF RVR FALLS  MOCLDY    13  10  88 S8        29.93F WCI   2
HALSTAD        NOT AVBL
FOSSTON        FAIR      10   9  92 S5        29.93F WCI   2
BAUDETTE       MOCLDY     6   3  87 S3        29.90F
WASKISH        MOCLDY    14   9  79 W7        29.91F WCI   4
CROOKSTON      FAIR      16  10  79 S3        29.96S
$$
  *****  WEATHER ACROSS CENTRAL AND WEST MINNESOTA  *****

CITY           SKY/WX    TMP DP  RH WIND       PRES   REMARKS
BEMIDJI        FAIR      11   7  84 SW3       29.92F
PARK RAPIDS    FAIR      13   8  81 SW5       29.94F WCI   5
WADENA         FAIR      12  10  92 S3        29.96F
DETROIT LAKES  FAIR      18  14  86 S5        29.95F WCI  11
MOORHEAD       FAIR      16  10  79 CALM      29.99R
FERGUS FALLS   FAIR      12  10  92 S3        30.02S
ELBOW LAKE     FAIR      14  11  89 S8        29.99F FOG     WCI   3
MORRIS MN      FAIR      16  12  86 S6        30.00F WCI   7
STAPLES        FAIR      12  10  92 CALM      29.98S
WHEATON        FAIR      19  14  79 S6        30.02F WCI  11
$$
  *****  WEATHER ELSEWHERE ACROSS MINNESOTA  *****

CITY           SKY/WX    TMP DP  RH WIND       PRES   REMARKS
DULUTH         FAIR       8   5  87 W10       29.93S WCI  -6
INTRNTL FALLS  MOCLDY     5   0  79 W5        29.90F WCI  -4
ELY            FLURRIES   5   3  92 CALM      29.89S
CLOQUET        FAIR       9   5  85 SW3       29.96S
BRAINERD       FAIR      15  10  80 SW7       29.99F WCI   5
HIBBING        FAIR       6   3  87 W3        29.92F
ALEXANDRIA     FAIR      15  11  83 SW6       29.99F WCI   6
SAINT CLOUD    FAIR      13  10  88 CALM      30.03F
MINNEAPOLIS    FAIR      18  12  77 SW7       30.09R WCI   9
$$

  *****  WEATHER ACROSS SOUTH DAKOTA  *****

CITY           SKY/WX    TMP DP  RH WIND       PRES   REMARKS
SIOUX FALLS    FAIR      23  18  81 SW3       30.08F
BROOKINGS      FAIR      21  16  81 S5        30.05F WCI  15
WATERTOWN      FAIR      22  19  89 SW7       30.01S WCI  13
HURON          FAIR      22  19  89 S5        30.05F WCI  16
SISSETON         N/A     28  21  75 N3        29.98S
ABERDEEN       FAIR      18  17  96 S7        30.00F WCI   9
MITCHELL       FAIR      27  22  81 SW8       30.08F WCI  19
PIERRE         FAIR      26  21  81 W8        30.02F WCI  18
MOBRIDGE       FAIR      23  18  81 SE7       29.96F WCI  15
RAPID CITY     FAIR      24  13  62 SE3       29.99F
$$

  *****  SOME WEATHER IN NEARBY STATES *****

CITY           SKY/WX    TMP DP  RH WIND       PRES   REMARKS
GLASGOW MT     FAIR      23  18  81 S5        29.87F WCI  17
GREAT FALLS MT FAIR      40  12  32 SW36G46   29.85F
CHEYENNE WY    FAIR      35  10  35 W22       30.12F WCI  23
SCOTTSBLUFF NE FAIR      17  10  74 CALM      30.11F
OMAHA NE       FAIR      24  18  77 SE5       30.21R WCI  18
DES MOINES IA  FAIR      22  15  75 W6        30.18R WCI  14
DAVENPORT IA   FAIR      21  15  78 W12       30.11R WCI   9
CHICAGO IL     MOCLDY    30  19  63 NW18G25   29.98R WCI  18
EAU CLAIRE WI  FAIR      15  10  80 W6        30.03S WCI   6
LA CROSSE WI   FAIR      20  12  71 W9        30.06R WCI   9
$$

  *****  SOME NATIONAL WEATHER *****

CITY           SKY/WX    TMP DP  RH WIND       PRES   REMARKS
LA GUARDIA NY  LGT RAIN  58  51  78 W26G36    29.24R
RALEIGH NC     FAIR      51  36  56 NW9G16    29.75R
ATLANTA GA     MOCLDY    44  35  70 NW18      29.99R
NEW ORLEANS LA FAIR      52  39  61 N20G29    30.17R
OKLAHOMA CITY  FAIR      34  24  67 W3        30.32S
ALBUQUERQUE NM FAIR      30   8  39 N8        30.32S WCI  22
SALT LAKE CITY MOCLDY    31  24  75 CALM      30.28F
LOS ANGELES CA FAIR      58  22  24 NE3       30.04S
BOISE ID       FAIR      31  22  69 E6        30.20F
SEATTLE WA     CLOUDY    41  34  76 SE7       30.02F
$$

*** WEATHER ACROSS MANITOBA...SASKATCHEWAN AND ONTARIO ***
                ***ONTARIO***

CITY           SKY/WX    TMP DP  RH WIND       PRES   REMARKS
GERALDTON      FLURRIES   9   5  85 N6        29.77S WCI  -1
THUNDER BAY    FLURRIES  16   9  73 W8        29.88S WCI   5
SIOUX LOOKOUT  FLURRIES   9   3  78 W12       29.81S WCI  -6
TORONTO        MOCLDY    36  30  80 NW16G25   29.55R
BIG TROUT LK   FLURRIES   9   5  85 W10G18    29.66S WCI  -6
PICKLE LAKE    LGT SNOW  10   5  79 W12G23    29.73R DRFTSNOWWCI  -4
DRYDEN         CLEAR      5   1  85 W9        29.83S WCI  -9
KENORA         PTCLDY     1   0  92 W5        29.85F WCI  -8
$$
                *** MANITOBA***

CITY           SKY/WX    TMP DP  RH WIND       PRES   REMARKS
BRANDON        CLOUDY    12   9  85 VRB2      29.83F
DAUPHIN        MOCLDY    16  12  86 SE3       29.84F
ISLAND LAKE    FLURRIES   7   1  78 W12G24    29.73S WCI  -9
PILOT MOUND      N/A     18  14  86 SW2         N/A
THE PAS        PTCLDY     0  -6  78 W3        29.83F
THOMPSON       FLURRIES   9   3  78 NW10G18   29.69S WCI  -6
WINNIPEG       FLURRIES  12   7  79 S3        29.91S
LYNN LAKE      FLURRIES   3   1  92 NW14G21   29.72F WCI -15
CHURCHILL      LGT SNOW  12  10  92 N18       29.43R DRFTSNOWWCI  -5
$$
                ***SASKATCHEWAN***

CITY           SKY/WX    TMP DP  RH WIND       PRES   REMARKS
ESTEVAN        PTCLDY    21  18  86 SW9       29.81F WCI  11
KINDERSLEY     NOT AVBL
LLOYDMINSTER   CLOUDY    12  10  92 E7        29.67F FOG     WCI   2
PRINCE ALBERT  CRYSTALS  -8 -13  77 CALM      29.85F FOG
REGINA         CLEAR     14  12  92 VRB2      29.79S
YORKTON        CLEAR      9   5  85 CALM      29.78S
N. BATTLEFORD  CLEAR      1  -2  85 E7        29.76F WC



USA.gov is the U.S. government's official web portal to all federal, state and local government web resources and services.